STARLINK-31800, 59643

Orbit data source: Space-Track

STARLINK-31800, 59643 is a payload satellite owned by SpaceX/Seattle (US) in LEO that was launched on Fri, 03 May 2024 UTC via an FALCON 9 launch vehicle from the Air Force Eastern Test Range (AFETR). Payload-class satellites include a variety of spacecraft equipped with specific instruments for various scientific and technological missions. These include communications satellites like Starlink; space stations such as the ISS; scientific satellites like the Hubble; Earth observation satellites from companies like Planet Labs, Umbra, and HawkEye 360; GPS; miniature CubeSats for education and research; and military/defense satellites.

Loading next visibility...
Identifier
59643, 2024-082N
Orbit
LEO
Country
Flag of USUS
Related business
Manufacturer
SpaceX/Seattle
Mission
Operational Commercial Communications
Bus & Motor
STARLINK V2M, Unknown motor
Mass
730 kg wet, ~700 kg dry
Launch date (UTC)
2024-05-03 (2 years ago)
Launch vehicle
FALCON 9
Launch site
Air Force Eastern Test Range (AFETR)
Object type
Payload
Rocket body
Debris
Shape & HBR
Box + 2 Pan, 17.7 m
Radar Cross Section
33.884 m², Large (>1 m²)

Expand to show TLE details & history
Last TLE update: 3 days ago

TLE from 3 days ago
0 STARLINK-31800
1 59643U 24082N   26170.78479699  .00005065  00000-0  19358-3 0  9993
2 59643  42.9999 283.4221 0001041 240.1697 119.9052 15.27559505120529
Epoch: 2026-06-19T18:50Z
TLE epoch observation values (Epoch: 2026-06-19T18:50:06.459Z)
Latitude
0.00002°
Longitude
92.88641°
Altitude
483.242 km
Speed
7.625 km/s
True Right ascension
18h 53m 41s
True Declination
0° 00' 00"
Sunlit
Object was in full shadow at epoch
Visualization orbit readout
Latitude
Unknown
Longitude
Unknown
Altitude
Unknown
Speed
Unknown
Apparent Right ascension
Unknown
Apparent Declination
Unknown
Sunlit
N/A
Visualization observer readout
Local Sidereal Time
21:23:32
Azimuth
Unknown
Elevation
Unknown
Doppler factor
Unknown
Orbital elements
Apogee altitude
485.77 km
Perigee altitude
484.341 km
Semi-major axis
6,863.193 km
Eccentricity
0.0001
Inclination
42.9999°
RAAN
283.4221°
Arg. of periapsis
240.1697°
True anomaly
119.91554°
Mean anomaly
119.9052°
Eccentric anomaly
119.91037°
Mean motion
3.81728 °/min
Orbital period
94.31 mins
BSTAR
0.00019358
Loading maneuver chart data...
Computing Atmospheric mass density...
Loading historical data...
Loading historical data...
Loading historical data...
Loading historical data...
Loading historical data...
Loading historical data...
Loading historical data...

Documentation

Showing up to 5 results
|